QPF
0.01 0.01 0.01 0.01 0.01 0.01 0.01 0.01 0.01 0.02 0.03 0.04 0.04 0.05 0.05 0.04 0.03 0.04 0.03 0.03 0.03 0.04 0.03 0.04 0.05 0.04 0.04 0.05 0.04 0.04 0.04 0.04 0.04 0.03 0.02 0.03 0.02 0.02 0.02 0.02 0.02 0.02 0.03
0.01 0.01 0.01 0.01 0.00 0.00 0.00 0.00 0.01 0.02 0.03 0.03 0.04 0.04 0.04 0.03 0.03 0.02 0.02 0.01 0.02 0.02 0.03 0.03 0.04 0.04 0.05 0.04 0.04 0.04 0.04 0.04 0.04 0.04 0.03 0.03 0.02 0.03 0.03 0.02 0.02 0.02 0.03
0.01 0.01 0.01 0.01 0.01 0.01 0.01 0.00 0.01 0.01 0.03 0.04 0.04 0.03 0.02 0.02 0.02 0.02 0.03 0.03 0.02 0.02 0.02 0.02 0.02 0.03 0.03 0.03 0.02 0.02 0.03 0.03 0.04 0.03 0.03 0.03 0.03 0.05 0.04 0.03 0.02 0.02 0.02
0.02 0.02 0.02 0.02 0.01 0.01 0.01 0.01 0.01 0.02 0.01 0.02 0.02 0.02 0.02 0.01 0.02 0.02 0.02 0.02 0.02 0.01 0.01 0.02 0.02 0.02 0.02 0.02 0.02 0.02 0.02 0.02 0.03 0.03 0.03 0.02 0.03 0.04 0.04 0.05 0.05 0.04 0.03
0.01 0.01 0.02 0.02 0.02 0.01 0.01 0.01 0.01 0.01 0.01 0.01 0.01 0.01 0.02 0.02 0.02 0.02 0.03 0.02 0.02 0.02 0.02 0.02 0.02 0.02 0.02 0.01 0.01 0.01 0.02 0.02 0.02 0.02 0.02 0.02 0.03 0.03 0.03 0.03 0.04 0.04 0.04
0.01 0.01 0.01 0.02 0.02 0.02 0.01 0.01 0.01 0.01 0.01 0.01 0.01 0.01 0.01 0.01 0.02 0.02 0.02 0.03 0.03 0.03 0.03 0.02 0.01 0.01 0.01 0.01 0.01 0.01 0.02 0.02 0.02 0.02 0.02 0.02 0.02 0.02 0.02 0.03 0.04 0.04 0.03
0.01 0.01 0.01 0.01 0.01 0.01 0.01 0.01 0.02 0.01 0.01 0.02 0.02 0.02 0.02 0.02 0.02 0.02 0.02 0.02 0.02 0.02 0.03 0.02 0.01 0.01 0.01 0.01 0.01 0.01 0.02 0.02 0.03 0.03 0.03 0.02 0.02 0.02 0.02 0.02 0.03 0.03 0.03
0.01 0.01 0.01 0.01 0.01 0.02 0.02 0.02 0.01 0.01 0.01 0.02 0.03 0.03 0.03 0.02 0.01 0.01 0.02 0.02 0.02 0.02 0.03 0.02 0.02 0.01 0.00 0.01 0.01 0.02 0.02 0.02 0.03 0.03 0.04 0.04 0.04 0.03 0.02 0.02 0.02 0.02 0.02
0.01 0.01 0.01 0.01 0.02 0.02 0.03 0.03 0.02 0.02 0.02 0.02 0.02 0.02 0.02 0.01 0.01 0.02 0.03 0.02 0.01 0.01 0.03 0.03 0.03 0.02 0.02 0.02 0.02 0.03 0.03 0.03 0.02 0.02 0.03 0.03 0.04 0.04 0.03 0.03 0.02 0.02 0.01
0.02 0.01 0.01 0.01 0.02 0.03 0.05 0.05 0.06 0.05 0.04 0.03 0.02 0.02 0.02 0.02 0.03 0.04 0.04 0.02 0.01 0.02 0.02 0.02 0.03 0.03 0.03 0.04 0.03 0.03 0.03 0.03 0.04 0.04 0.04 0.04 0.04 0.04 0.05 0.04 0.03 0.03 0.02
0.02 0.01 0.01 0.01 0.01 0.03 0.04 0.04 0.05 0.04 0.04 0.03 0.03 0.04 0.04 0.02 0.02 0.03 0.03 0.03 0.02 0.03 0.03 0.03 0.03 0.03 0.03 0.04 0.04 0.03 0.01 0.03 0.04 0.04 0.04 0.04 0.05 0.04 0.04 0.03 0.03 0.03 0.03
0.01 0.01 0.01 0.01 0.02 0.02 0.02 0.02 0.02 0.02 0.02 0.03 0.02 0.02 0.02 0.02 0.02 0.03 0.03 0.04 0.04 0.03 0.03 0.04 0.05 0.06 0.06 0.06 0.05 0.04 0.04 0.05 0.04 0.03 0.02 0.03 0.04 0.04 0.04 0.03 0.03 0.03 0.04
0.02 0.02 0.02 0.02 0.02 0.02 0.02 0.02 0.01 0.01 0.01 0.02 0.02 0.02 0.02 0.02 0.02 0.03 0.03 0.04 0.04 0.04 0.03 0.04 0.05 0.05 0.05 0.05 0.04 0.04 0.04 0.05 0.04 0.04 0.03 0.03 0.04 0.04 0.04 0.03 0.04 0.04 0.03
0.01 0.02 0.02 0.02 0.02 0.02 0.01 0.01 0.01 0.01 0.01 0.01 0.02 0.02 0.02 0.02 0.02 0.02 0.02 0.03 0.03 0.04 0.04 0.04 0.05 0.05 0.04 0.04 0.03 0.03 0.03 0.03 0.03 0.02 0.02 0.02 0.03 0.03 0.03 0.04 0.04 0.04 0.03
0.01 0.02 0.02 0.03 0.03 0.02 0.02 0.02 0.02 0.01 0.01 0.01 0.01 0.02 0.03 0.03 0.03 0.02 0.02 0.02 0.02 0.03 0.03 0.03 0.04 0.04 0.03 0.02 0.02 0.01 0.02 0.02 0.02 0.02 0.02 0.03 0.03 0.03 0.03 0.04 0.05 0.05 0.05
0.01 0.02 0.02 0.02 0.02 0.02 0.02 0.02 0.02 0.02 0.01 0.01 0.01 0.01 0.01 0.01 0.01 0.02 0.02 0.02 0.03 0.04 0.03 0.03 0.04 0.04 0.03 0.02 0.01 0.01 0.01 0.02 0.02 0.02 0.03 0.04 0.05 0.06 0.06 0.06 0.06 0.07 0.07
0.01 0.02 0.02 0.02 0.02 0.02 0.02 0.02 0.02 0.02 0.01 0.01 0.00 0.00 0.00 0.00 0.00 0.00 0.01 0.02 0.04 0.03 0.02 0.03 0.04 0.05 0.04 0.03 0.02 0.02 0.02 0.02 0.02 0.02 0.03 0.03 0.03 0.04 0.04 0.05 0.06 0.06 0.07
0.01 0.02 0.02 0.03 0.04 0.03 0.03 0.03 0.03 0.02 0.02 0.02 0.01 0.01 0.01 0.01 0.01 0.01 0.02 0.02 0.02 0.02 0.02 0.02 0.02 0.03 0.03 0.03 0.03 0.02 0.02 0.02 0.02 0.02 0.03 0.03 0.03 0.04 0.04 0.05 0.05 0.05 0.06
0.01 0.02 0.02 0.02 0.03 0.03 0.03 0.03 0.03 0.03 0.03 0.02 0.02 0.03 0.02 0.02 0.02 0.02 0.02 0.01 0.01 0.01 0.01 0.02 0.02 0.03 0.03 0.03 0.03 0.03 0.03 0.02 0.02 0.03 0.02 0.02 0.03 0.04 0.05 0.05 0.06 0.06 0.07
0.02 0.01 0.01 0.01 0.02 0.02 0.03 0.03 0.02 0.03 0.03 0.03 0.03 0.03 0.02 0.01 0.02 0.02 0.01 0.01 0.01 0.01 0.01 0.02 0.02 0.02 0.02 0.02 0.02 0.02 0.02 0.02 0.02 0.02 0.02 0.02 0.03 0.04 0.04 0.04 0.05 0.06 0.06
0.02 0.02 0.02 0.02 0.01 0.02 0.02 0.03 0.03 0.03 0.03 0.03 0.03 0.03 0.02 0.01 0.01 0.01 0.01 0.01 0.01 0.01 0.01 0.01 0.01 0.01 0.01 0.02 0.01 0.01 0.01 0.01 0.01 0.01 0.01 0.02 0.02 0.04 0.05 0.05 0.05 0.05 0.05
0.02 0.02 0.01 0.01 0.01 0.02 0.02 0.02 0.02 0.02 0.02 0.02 0.02 0.02 0.02 0.02 0.02 0.02 0.02 0.02 0.01 0.01 0.01 0.01 0.01 0.02 0.02 0.02 0.01 0.02 0.02 0.02 0.01 0.01 0.01 0.02 0.02 0.03 0.04 0.05 0.05 0.06 0.07
0.02 0.02 0.02 0.02 0.02 0.02 0.03 0.03 0.03 0.02 0.02 0.02 0.02 0.02 0.02 0.02 0.02 0.02 0.02 0.02 0.02 0.02 0.02 0.02 0.02 0.03 0.02 0.02 0.02 0.02 0.02 0.02 0.02 0.02 0.01 0.01 0.01 0.02 0.02 0.04 0.04 0.06 0.07
0.02 0.02 0.02 0.02 0.02 0.03 0.03 0.03 0.02 0.02 0.02 0.02 0.02 0.02 0.02 0.02 0.02 0.02 0.02 0.02 0.02 0.02 0.02 0.02 0.02 0.02 0.03 0.03 0.02 0.02 0.02 0.02 0.03 0.03 0.03 0.02 0.02 0.02 0.02 0.03 0.03 0.03 0.06
0.03 0.03 0.03 0.03 0.03 0.03 0.03 0.03 0.03 0.02 0.02 0.03 0.03 0.03 0.03 0.02 0.02 0.02 0.02 0.02 0.02 0.03 0.03 0.03 0.03 0.02 0.02 0.02 0.02 0.03 0.03 0.03 0.03 0.04 0.04 0.04 0.04 0.03 0.04 0.05 0.05 0.04 0.05
0.04 0.04 0.04 0.04 0.04 0.05 0.05 0.05 0.04 0.04 0.03 0.03 0.04 0.03 0.03 0.03 0.03 0.03 0.03 0.03 0.03 0.03 0.03 0.03 0.03 0.03 0.03 0.03 0.03 0.03 0.03 0.03 0.03 0.05 0.05 0.05 0.05 0.04 0.04 0.04 0.04 0.04 0.05
MSLP
1011.23 1011.72 1012.17 1012.52 1012.78 1012.93 1012.99 1012.98 1012.94 1012.90 1012.89 1012.92 1013.01 1013.13 1013.26 1013.40 1013.51 1013.58 1013.63 1013.66 1013.68 1013.72 1013.79 1013.91 1014.07 1014.26 1014.46 1014.63 1014.77 1014.84 1014.84 1014.79 1014.70 1014.60 1014.53 1014.50 1014.56 1014.69 1014.90 1015.18 1015.49 1015.82 1016.12
1011.19 1011.66 1012.07 1012.41 1012.65 1012.79 1012.83 1012.80 1012.74 1012.68 1012.63 1012.63 1012.66 1012.72 1012.81 1012.89 1012.95 1012.99 1013.00 1012.99 1012.99 1013.01 1013.06 1013.15 1013.29 1013.46 1013.64 1013.81 1013.95 1014.04 1014.08 1014.07 1014.04 1014.01 1014.00 1014.04 1014.15 1014.34 1014.58 1014.88 1015.20 1015.53 1015.82
1011.49 1011.92 1012.30 1012.60 1012.80 1012.90 1012.91 1012.85 1012.76 1012.65 1012.56 1012.50 1012.47 1012.48 1012.50 1012.52 1012.53 1012.52 1012.49 1012.46 1012.42 1012.41 1012.44 1012.50 1012.60 1012.74 1012.89 1013.04 1013.16 1013.26 1013.31 1013.34 1013.35 1013.37 1013.42 1013.51 1013.67 1013.90 1014.17 1014.49 1014.81 1015.13 1015.42
1012.08 1012.47 1012.80 1013.05 1013.19 1013.24 1013.21 1013.11 1012.97 1012.82 1012.67 1012.55 1012.47 1012.41 1012.36 1012.32 1012.28 1012.22 1012.15 1012.08 1012.01 1011.97 1011.96 1011.99 1012.05 1012.15 1012.26 1012.37 1012.46 1012.54 1012.59 1012.62 1012.65 1012.69 1012.77 1012.90 1013.09 1013.34 1013.63 1013.95 1014.28 1014.59 1014.88
1012.86 1013.20 1013.47 1013.66 1013.75 1013.74 1013.65 1013.50 1013.32 1013.12 1012.92 1012.75 1012.61 1012.49 1012.38 1012.28 1012.19 1012.08 1011.97 1011.86 1011.77 1011.69 1011.65 1011.63 1011.65 1011.70 1011.76 1011.82 1011.86 1011.90 1011.92 1011.93 1011.95 1011.99 1012.07 1012.20 1012.39 1012.63 1012.92 1013.24 1013.57 1013.89 1014.18
1013.68 1013.97 1014.19 1014.31 1014.34 1014.28 1014.13 1013.94 1013.71 1013.47 1013.24 1013.02 1012.84 1012.67 1012.52 1012.37 1012.23 1012.09 1011.94 1011.80 1011.67 1011.56 1011.47 1011.42 1011.39 1011.38 1011.38 1011.38 1011.37 1011.35 1011.31 1011.28 1011.26 1011.26 1011.31 1011.41 1011.57 1011.79 1012.06 1012.37 1012.69 1013.01 1013.32
1014.41 1014.65 1014.81 1014.87 1014.84 1014.72 1014.54 1014.30 1014.05 1013.79 1013.53 1013.30 1013.09 1012.90 1012.72 1012.55 1012.38 1012.20 1012.02 1011.85 1011.69 1011.54 1011.42 1011.32 1011.24 1011.17 1011.11 1011.04 1010.96 1010.87 1010.77 1010.68 1010.59 1010.53 1010.52 1010.57 1010.68 1010.86 1011.10 1011.38 1011.69 1012.03 1012.36
1014.96 1015.15 1015.24 1015.25 1015.16 1015.00 1014.78 1014.53 1014.26 1014.00 1013.75 1013.52 1013.32 1013.13 1012.95 1012.77 1012.58 1012.39 1012.19 1011.99 1011.79 1011.61 1011.44 1011.29 1011.16 1011.03 1010.90 1010.77 1010.63 1010.47 1010.30 1010.14 1009.98 1009.85 1009.77 1009.76 1009.81 1009.93 1010.13 1010.39 1010.69 1011.04 1011.40
1015.32 1015.43 1015.46 1015.41 1015.27 1015.07 1014.83 1014.58 1014.32 1014.08 1013.86 1013.66 1013.49 1013.32 1013.16 1013.00 1012.81 1012.62 1012.40 1012.18 1011.95 1011.73 1011.51 1011.31 1011.12 1010.93 1010.74 1010.55 1010.35 1010.13 1009.91 1009.68 1009.46 1009.28 1009.14 1009.06 1009.06 1009.14 1009.29 1009.53 1009.83 1010.18 1010.58
1015.51 1015.55 1015.51 1015.40 1015.21 1014.99 1014.74 1014.49 1014.25 1014.04 1013.87 1013.72 1013.60 1013.48 1013.36 1013.22 1013.06 1012.86 1012.64 1012.39 1012.13 1011.86 1011.59 1011.33 1011.07 1010.83 1010.59 1010.35 1010.10 1009.84 1009.58 1009.32 1009.07 1008.85 1008.68 1008.57 1008.53 1008.58 1008.71 1008.94 1009.24 1009.60 1010.02
1015.61 1015.57 1015.46 1015.29 1015.07 1014.81 1014.56 1014.32 1014.11 1013.94 1013.82 1013.73 1013.67 1013.61 1013.54 1013.44 1013.30 1013.11 1012.88 1012.61 1012.30 1011.98 1011.65 1011.32 1011.00 1010.70 1010.41 1010.13 1009.85 1009.58 1009.31 1009.05 1008.81 1008.59 1008.42 1008.31 1008.28 1008.32 1008.46 1008.68 1008.99 1009.36 1009.79
1015.68 1015.57 1015.40 1015.17 1014.90 1014.63 1014.36 1014.13 1013.95 1013.83 1013.75 1013.72 1013.72 1013.72 1013.70 1013.64 1013.52 1013.34 1013.10 1012.79 1012.44 1012.05 1011.65 1011.26 1010.87 1010.51 1010.18 1009.87 1009.59 1009.33 1009.09 1008.86 1008.66 1008.50 1008.37 1008.30 1008.29 1008.37 1008.53 1008.77 1009.09 1009.47 1009.90
1015.79 1015.61 1015.38 1015.10 1014.80 1014.49 1014.22 1013.99 1013.82 1013.73 1013.69 1013.71 1013.76 1013.80 1013.83 1013.80 1013.71 1013.53 1013.26 1012.92 1012.51 1012.06 1011.59 1011.12 1010.67 1010.26 1009.89 1009.57 1009.30 1009.07 1008.88 1008.72 1008.59 1008.50 1008.45 1008.45 1008.51 1008.64 1008.84 1009.11 1009.45 1009.83 1010.25
1015.94 1015.71 1015.43 1015.11 1014.77 1014.44 1014.14 1013.91 1013.75 1013.66 1013.65 1013.69 1013.77 1013.86 1013.91 1013.91 1013.82 1013.64 1013.36 1012.98 1012.52 1012.00 1011.46 1010.92 1010.41 1009.95 1009.55 1009.23 1008.98 1008.79 1008.66 1008.58 1008.55 1008.55 1008.60 1008.68 1008.82 1009.01 1009.26 1009.56 1009.91 1010.29 1010.68
1016.12 1015.85 1015.53 1015.17 1014.81 1014.45 1014.13 1013.88 1013.70 1013.62 1013.61 1013.66 1013.76 1013.86 1013.93 1013.94 1013.86 1013.66 1013.36 1012.95 1012.44 1011.87 1011.27 1010.67 1010.11 1009.61 1009.20 1008.87 1008.64 1008.50 1008.44 1008.44 1008.49 1008.58 1008.72 1008.88 1009.09 1009.33 1009.61 1009.93 1010.29 1010.66 1011.02
1016.29 1016.00 1015.65 1015.27 1014.87 1014.49 1014.15 1013.87 1013.68 1013.57 1013.55 1013.60 1013.70 1013.80 1013.87 1013.88 1013.80 1013.60 1013.28 1012.84 1012.31 1011.70 1011.06 1010.43 1009.83 1009.31 1008.89 1008.57 1008.36 1008.26 1008.24 1008.30 1008.41 1008.57 1008.76 1008.98 1009.22 1009.49 1009.78 1010.10 1010.43 1010.77 1011.10
1016.41 1016.11 1015.74 1015.34 1014.92 1014.52 1014.16 1013.86 1013.64 1013.51 1013.48 1013.51 1013.59 1013.68 1013.75 1013.76 1013.67 1013.47 1013.15 1012.71 1012.16 1011.55 1010.90 1010.25 1009.65 1009.12 1008.70 1008.39 1008.20 1008.12 1008.13 1008.21 1008.35 1008.53 1008.73 1008.95 1009.18 1009.43 1009.70 1009.98 1010.27 1010.57 1010.85
1016.48 1016.16 1015.79 1015.37 1014.94 1014.52 1014.14 1013.83 1013.59 1013.45 1013.39 1013.40 1013.46 1013.54 1013.60 1013.61 1013.52 1013.33 1013.02 1012.59 1012.06 1011.46 1010.83 1010.21 1009.62 1009.12 1008.71 1008.42 1008.23 1008.16 1008.16 1008.24 1008.36 1008.51 1008.67 1008.84 1009.02 1009.20 1009.40 1009.61 1009.83 1010.06 1010.29
1016.49 1016.16 1015.78 1015.36 1014.93 1014.51 1014.13 1013.80 1013.56 1013.40 1013.32 1013.32 1013.36 1013.43 1013.47 1013.47 1013.39 1013.22 1012.93 1012.53 1012.05 1011.49 1010.91 1010.34 1009.80 1009.33 1008.96 1008.68 1008.51 1008.42 1008.41 1008.44 1008.51 1008.59 1008.67 1008.74 1008.81 1008.89 1008.98 1009.09 1009.21 1009.36 1009.53
1016.48 1016.14 1015.75 1015.34 1014.91 1014.50 1014.13 1013.81 1013.57 1013.40 1013.32 1013.30 1013.33 1013.38 1013.41 1013.41 1013.33 1013.17 1012.92 1012.57 1012.14 1011.66 1011.15 1010.65 1010.18 1009.78 1009.45 1009.20 1009.03 1008.93 1008.88 1008.85 1008.84 1008.82 1008.78 1008.74 1008.68 1008.62 1008.57 1008.55 1008.57 1008.62 1008.71
1016.48 1016.13 1015.74 1015.34 1014.93 1014.55 1014.20 1013.90 1013.67 1013.51 1013.42 1013.39 1013.40 1013.43 1013.45 1013.44 1013.37 1013.22 1013.00 1012.70 1012.34 1011.94 1011.52 1011.10 1010.72 1010.39 1010.12 1009.91 1009.76 1009.64 1009.55 1009.46 1009.36 1009.23 1009.07 1008.89 1008.69 1008.49 1008.30 1008.15 1008.04 1007.99 1008.00
1016.52 1016.16 1015.79 1015.40 1015.02 1014.67 1014.36 1014.09 1013.88 1013.74 1013.65 1013.61 1013.60 1013.60 1013.60 1013.56 1013.48 1013.35 1013.15 1012.90 1012.60 1012.28 1011.95 1011.63 1011.34 1011.08 1010.88 1010.71 1010.58 1010.46 1010.34 1010.19 1010.01 1009.79 1009.52 1009.21 1008.88 1008.55 1008.24 1007.97 1007.75 1007.59 1007.51
1016.61 1016.26 1015.89 1015.54 1015.20 1014.89 1014.62 1014.39 1014.21 1014.07 1013.98 1013.92 1013.89 1013.86 1013.82 1013.75 1013.65 1013.51 1013.33 1013.10 1012.86 1012.60 1012.35 1012.11 1011.91 1011.73 1011.59 1011.48 1011.37 1011.26 1011.12 1010.94 1010.70 1010.41 1010.06 1009.66 1009.24 1008.81 1008.39 1008.02 1007.70 1007.46 1007.29
1016.73 1016.39 1016.05 1015.74 1015.44 1015.18 1014.95 1014.75 1014.60 1014.47 1014.37 1014.29 1014.22 1014.15 1014.06 1013.95 1013.81 1013.65 1013.46 1013.25 1013.04 1012.83 1012.64 1012.47 1012.34 1012.23 1012.15 1012.08 1012.01 1011.91 1011.78 1011.58 1011.32 1010.99 1010.60 1010.15 1009.67 1009.17 1008.69 1008.25 1007.86 1007.54 1007.29
1016.84 1016.53 1016.23 1015.95 1015.70 1015.48 1015.29 1015.13 1014.99 1014.86 1014.75 1014.64 1014.53 1014.40 1014.26 1014.09 1013.91 1013.71 1013.50 1013.29 1013.09 1012.91 1012.76 1012.64 1012.56 1012.51 1012.48 1012.45 1012.41 1012.33 1012.21 1012.02 1011.76 1011.43 1011.02 1010.56 1010.06 1009.54 1009.03 1008.54 1008.11 1007.73 1007.42
1016.91 1016.63 1016.37 1016.13 1015.93 1015.75 1015.59 1015.45 1015.31 1015.18 1015.05 1014.90 1014.74 1014.56 1014.36 1014.14 1013.91 1013.67 1013.43 1013.21 1013.01 1012.84 1012.71 1012.62 1012.57 1012.55 1012.55 1012.55 1012.54 1012.49 1012.38 1012.21 1011.97 1011.65 1011.26 1010.81 1010.32 1009.80 1009.29 1008.79 1008.33 1007.92 1007.56
Thickness
5788 5784 5781 5778 5776 5773 5770 5767 5765 5763 5760 5757 5754 5752 5751 5748 5747 5745 5744 5741 5738 5736 5735 5733 5731 5730 5731 5731 5729 5727 5725 5722 5715 5715 5715 5712 5708 5706 5704 5702 5701 5698 5696
5787 5782 5779 5777 5774 5771 5768 5766 5763 5760 5758 5755 5752 5749 5748 5746 5744 5741 5739 5738 5735 5732 5731 5729 5727 5727 5724 5724 5723 5722 5720 5718 5713 5708 5707 5706 5702 5701 5699 5696 5696 5694 5691
5785 5780 5776 5774 5771 5768 5766 5763 5761 5758 5755 5753 5750 5746 5744 5743 5741 5738 5736 5733 5731 5729 5727 5725 5723 5721 5719 5719 5717 5717 5716 5715 5711 5707 5703 5700 5698 5696 5693 5691 5690 5687 5686
5783 5778 5773 5771 5768 5765 5763 5760 5757 5754 5752 5749 5747 5744 5742 5740 5737 5735 5732 5729 5727 5725 5723 5721 5720 5717 5715 5712 5711 5710 5709 5707 5705 5702 5699 5696 5693 5691 5688 5686 5683 5681 5680
5779 5774 5771 5768 5765 5761 5758 5755 5753 5750 5749 5745 5743 5740 5738 5736 5734 5730 5727 5725 5722 5720 5718 5717 5715 5712 5709 5707 5707 5705 5703 5701 5700 5697 5694 5692 5688 5684 5683 5682 5679 5677 5675
5774 5771 5768 5764 5760 5756 5753 5751 5748 5746 5744 5741 5738 5736 5734 5733 5726 5722 5720 5720 5718 5715 5713 5711 5709 5706 5702 5699 5697 5695 5693 5693 5692 5690 5689 5685 5682 5680 5678 5677 5674 5671 5669
5770 5766 5763 5760 5755 5753 5751 5747 5743 5740 5738 5736 5733 5731 5728 5723 5718 5715 5712 5713 5713 5711 5708 5705 5705 5704 5699 5696 5692 5688 5687 5684 5682 5682 5681 5680 5678 5676 5672 5670 5668 5666 5664
5765 5761 5758 5754 5751 5748 5745 5742 5739 5736 5733 5730 5728 5726 5722 5718 5713 5710 5707 5708 5708 5706 5703 5701 5698 5696 5695 5691 5689 5687 5685 5682 5679 5677 5676 5675 5674 5671 5668 5665 5662 5660 5659
5760 5756 5753 5750 5747 5743 5740 5737 5734 5731 5728 5726 5723 5720 5717 5713 5707 5704 5701 5703 5702 5701 5699 5696 5693 5690 5686 5682 5681 5680 5678 5677 5674 5671 5669 5667 5664 5662 5660 5659 5658 5656 5654
5755 5752 5749 5746 5742 5739 5735 5732 5729 5726 5724 5722 5719 5716 5713 5709 5703 5698 5694 5698 5696 5695 5693 5691 5686 5683 5678 5674 5674 5673 5670 5670 5669 5667 5663 5660 5658 5656 5653 5652 5653 5651 5651
5750 5746 5742 5739 5736 5733 5730 5726 5723 5721 5718 5715 5712 5710 5707 5704 5699 5693 5690 5691 5691 5690 5688 5686 5684 5675 5671 5667 5665 5666 5664 5662 5662 5660 5659 5657 5655 5653 5650 5648 5647 5646 5646
5743 5739 5735 5732 5731 5728 5723 5719 5717 5714 5711 5708 5705 5703 5703 5700 5695 5690 5685 5683 5682 5682 5681 5681 5677 5669 5664 5661 5659 5658 5655 5653 5655 5654 5653 5652 5650 5649 5647 5645 5642 5640 5639
5734 5731 5728 5725 5722 5720 5715 5712 5710 5707 5706 5705 5703 5700 5699 5697 5692 5686 5681 5677 5674 5674 5676 5672 5667 5661 5658 5656 5653 5650 5648 5649 5649 5648 5647 5646 5645 5643 5640 5637 5635 5632 5631
5725 5722 5720 5717 5714 5712 5709 5707 5705 5703 5701 5699 5697 5694 5693 5691 5688 5683 5679 5675 5669 5668 5667 5664 5658 5655 5652 5650 5648 5646 5644 5645 5644 5642 5642 5641 5639 5637 5633 5632 5630 5628 5626
5716 5714 5712 5710 5708 5704 5702 5700 5698 5697 5695 5691 5690 5688 5686 5683 5679 5672 5670 5669 5666 5663 5658 5657 5656 5653 5650 5648 5647 5645 5642 5640 5637 5635 5634 5632 5631 5629 5628 5626 5623 5622 5620
5708 5705 5704 5703 5700 5698 5696 5693 5689 5687 5684 5680 5677 5676 5677 5672 5667 5663 5659 5657 5653 5650 5649 5651 5650 5649 5647 5644 5641 5639 5637 5635 5632 5630 5627 5625 5624 5622 5621 5620 5618 5616 5615
5700 5697 5696 5695 5692 5690 5688 5686 5684 5679 5674 5672 5669 5667 5665 5662 5659 5655 5651 5647 5644 5641 5644 5646 5645 5643 5641 5638 5635 5632 5630 5629 5626 5623 5621 5619 5617 5616 5615 5613 5612 5610 5609
5692 5689 5687 5685 5685 5684 5682 5680 5678 5676 5673 5671 5665 5660 5657 5654 5650 5647 5642 5638 5641 5638 5640 5640 5638 5637 5635 5632 5629 5626 5624 5622 5619 5617 5615 5613 5611 5609 5608 5607 5605 5603 5602
5684 5682 5680 5679 5678 5676 5675 5673 5671 5669 5667 5665 5662 5658 5651 5647 5643 5639 5635 5637 5639 5637 5636 5634 5632 5630 5628 5625 5622 5619 5617 5615 5612 5610 5609 5607 5606 5604 5602 5601 5600 5596 5594
5676 5671 5668 5670 5670 5669 5668 5666 5664 5662 5660 5658 5656 5654 5649 5645 5642 5639 5635 5635 5633 5632 5630 5627 5625 5623 5620 5617 5614 5612 5610 5608 5606 5604 5602 5600 5598 5597 5596 5594 5593 5591 5590
5668 5666 5659 5661 5662 5661 5659 5657 5656 5654 5653 5652 5650 5647 5641 5640 5638 5635 5632 5630 5628 5626 5624 5621 5619 5616 5613 5610 5608 5605 5603 5602 5599 5597 5595 5593 5591 5590 5589 5588 5586 5584 5583
5659 5658 5656 5654 5653 5651 5650 5649 5648 5646 5645 5643 5642 5639 5631 5631 5631 5629 5627 5624 5622 5619 5617 5615 5613 5611 5607 5604 5601 5598 5597 5594 5592 5589 5587 5585 5583 5582 5581 5580 5579 5577 5576
5651 5650 5647 5646 5645 5642 5641 5641 5640 5638 5637 5635 5633 5631 5627 5625 5623 5621 5619 5616 5614 5612 5609 5607 5604 5603 5600 5597 5594 5591 5589 5587 5584 5581 5578 5577 5575 5574 5573 5572 5570 5568 5568
5643 5641 5640 5638 5637 5635 5633 5631 5630 5628 5627 5625 5623 5621 5618 5615 5613 5611 5609 5607 5605 5603 5600 5598 5596 5593 5590 5587 5586 5583 5581 5577 5574 5572 5569 5568 5567 5566 5565 5564 5562 5561 5560
5636 5634 5631 5630 5628 5627 5625 5623 5620 5619 5617 5616 5613 5610 5608 5606 5604 5603 5601 5598 5595 5593 5591 5589 5587 5584 5581 5578 5576 5573 5568 5565 5562 5560 5559 5558 5558 5557 5556 5555 5554 5553 5551
5628 5625 5623 5622 5620 5618 5616 5613 5611 5610 5608 5606 5604 5602 5600 5598 5596 5594 5592 5589 5587 5585 5582 5580 5577 5575 5573 5570 5566 5562 5557 5555 5551 5548 5547 5548 5549 5549 5548 5547 5546 5545 5543